QPF
0.00 0.01 0.03 0.06 0.06 0.05 0.05 0.03 0.02 0.01 0.00 0.00 0.00 0.00 0.00 0.00 0.00 0.00 0.00 0.00 0.01 0.01 0.01 0.01 0.00 0.00 0.00 0.00 0.00 0.00 0.00 0.00 0.01 0.01 0.01 0.00 0.00 0.00 0.00 0.00 0.00 0.01 0.01
0.00 0.01 0.03 0.05 0.07 0.08 0.06 0.04 0.03 0.01 0.01 0.00 0.00 0.00 0.00 0.00 0.00 0.00 0.00 0.00 0.00 0.01 0.00 0.00 0.00 0.00 0.00 0.00 0.00 0.00 0.00 0.00 0.00 0.00 0.00 0.00 0.00 0.00 0.00 0.00 0.00 0.00 0.00
0.01 0.01 0.03 0.06 0.08 0.08 0.06 0.04 0.03 0.02 0.01 0.01 0.00 0.00 0.00 0.00 0.00 0.00 0.00 0.00 0.00 0.00 0.00 0.00 0.00 0.00 0.00 0.00 0.00 0.00 0.00 0.00 0.00 0.00 0.00 0.00 0.00 0.00 0.00 0.00 0.00 0.00 0.00
0.01 0.01 0.02 0.05 0.08 0.08 0.05 0.03 0.03 0.02 0.01 0.01 0.00 0.00 0.00 0.00 0.00 0.00 0.00 0.00 0.00 0.00 0.00 0.00 0.00 0.00 0.00 0.00 0.00 0.00 0.00 0.00 0.00 0.00 0.00 0.00 0.00 0.00 0.00 0.00 0.00 0.00 0.00
0.01 0.02 0.03 0.04 0.07 0.06 0.05 0.03 0.02 0.01 0.01 0.00 0.00 0.00 0.00 0.00 0.00 0.00 0.00 0.00 0.00 0.00 0.00 0.00 0.00 0.00 0.00 0.00 0.00 0.00 0.00 0.00 0.00 0.00 0.00 0.00 0.00 0.00 0.00 0.00 0.00 0.00 0.00
0.01 0.02 0.03 0.05 0.05 0.04 0.03 0.02 0.01 0.01 0.00 0.00 0.00 0.00 0.00 0.00 0.00 0.00 0.00 0.00 0.00 0.00 0.00 0.00 0.00 0.00 0.00 0.00 0.00 0.00 0.00 0.00 0.00 0.00 0.00 0.00 0.00 0.00 0.00 0.01 0.00 0.00 0.00
0.02 0.02 0.04 0.04 0.03 0.02 0.01 0.01 0.00 0.00 0.00 0.00 0.00 0.00 0.00 0.00 0.00 0.00 0.00 0.00 0.00 0.00 0.00 0.00 0.00 0.00 0.00 0.00 0.00 0.00 0.00 0.00 0.00 0.00 0.00 0.00 0.00 0.00 0.00 0.01 0.01 0.01 0.00
0.02 0.03 0.04 0.03 0.02 0.01 0.01 0.00 0.00 0.00 0.00 0.00 0.00 0.00 0.00 0.00 0.00 0.00 0.00 0.00 0.00 0.00 0.00 0.00 0.00 0.00 0.00 0.00 0.00 0.00 0.00 0.00 0.00 0.00 0.00 0.00 0.00 0.00 0.00 0.01 0.01 0.01 0.01
0.03 0.05 0.04 0.03 0.02 0.01 0.00 0.00 0.00 0.00 0.00 0.00 0.00 0.00 0.00 0.00 0.00 0.00 0.00 0.00 0.00 0.00 0.00 0.00 0.00 0.00 0.00 0.00 0.00 0.00 0.00 0.00 0.00 0.00 0.00 0.00 0.00 0.00 0.00 0.00 0.01 0.02 0.02
0.06 0.07 0.04 0.03 0.02 0.01 0.00 0.00 0.00 0.00 0.00 0.00 0.00 0.00 0.00 0.00 0.00 0.00 0.00 0.00 0.00 0.00 0.00 0.00 0.00 0.00 0.00 0.00 0.00 0.00 0.00 0.00 0.00 0.00 0.00 0.00 0.00 0.00 0.00 0.00 0.00 0.01 0.02
0.08 0.08 0.05 0.04 0.03 0.01 0.00 0.00 0.00 0.00 0.00 0.00 0.00 0.00 0.00 0.00 0.00 0.00 0.00 0.00 0.00 0.00 0.00 0.00 0.00 0.00 0.00 0.00 0.00 0.00 0.00 0.00 0.00 0.00 0.00 0.00 0.00 0.00 0.00 0.00 0.00 0.01 0.02
0.08 0.07 0.05 0.04 0.02 0.01 0.01 0.01 0.00 0.00 0.00 0.00 0.00 0.00 0.00 0.00 0.00 0.00 0.00 0.00 0.00 0.00 0.00 0.00 0.00 0.00 0.00 0.00 0.00 0.00 0.00 0.00 0.00 0.00 0.00 0.00 0.00 0.00 0.00 0.00 0.01 0.01 0.02
0.05 0.05 0.04 0.03 0.02 0.02 0.02 0.01 0.01 0.00 0.00 0.00 0.00 0.00 0.00 0.00 0.00 0.00 0.00 0.00 0.00 0.00 0.00 0.00 0.00 0.00 0.00 0.00 0.00 0.00 0.00 0.00 0.00 0.00 0.00 0.00 0.00 0.00 0.00 0.01 0.01 0.02 0.03
0.05 0.05 0.06 0.06 0.05 0.04 0.03 0.02 0.01 0.00 0.00 0.00 0.00 0.00 0.00 0.00 0.00 0.00 0.00 0.00 0.00 0.00 0.00 0.00 0.00 0.00 0.00 0.00 0.00 0.00 0.00 0.00 0.00 0.00 0.00 0.00 0.00 0.00 0.01 0.02 0.02 0.02 0.02
0.09 0.13 0.14 0.11 0.08 0.05 0.02 0.01 0.00 0.00 0.00 0.00 0.00 0.00 0.00 0.00 0.00 0.00 0.00 0.00 0.00 0.00 0.00 0.00 0.00 0.00 0.00 0.00 0.00 0.00 0.00 0.00 0.00 0.00 0.00 0.00 0.00 0.01 0.02 0.03 0.03 0.02 0.02
0.20 0.20 0.14 0.08 0.05 0.02 0.01 0.00 0.00 0.00 0.00 0.00 0.00 0.00 0.00 0.00 0.00 0.00 0.00 0.00 0.00 0.00 0.00 0.00 0.00 0.00 0.00 0.00 0.00 0.00 0.00 0.00 0.00 0.00 0.00 0.00 0.00 0.00 0.01 0.02 0.02 0.02 0.02
0.19 0.13 0.07 0.03 0.01 0.00 0.00 0.00 0.00 0.00 0.00 0.00 0.00 0.00 0.00 0.00 0.00 0.00 0.00 0.00 0.00 0.00 0.00 0.00 0.00 0.00 0.00 0.00 0.00 0.00 0.00 0.00 0.00 0.00 0.00 0.00 0.00 0.00 0.00 0.01 0.01 0.01 0.01
0.10 0.06 0.04 0.02 0.01 0.00 0.00 0.00 0.00 0.00 0.00 0.00 0.00 0.00 0.00 0.00 0.00 0.00 0.00 0.00 0.00 0.00 0.00 0.00 0.00 0.00 0.00 0.00 0.00 0.00 0.00 0.00 0.00 0.00 0.00 0.00 0.00 0.01 0.01 0.01 0.00 0.00 0.01
0.09 0.06 0.04 0.02 0.01 0.00 0.00 0.00 0.00 0.00 0.00 0.00 0.00 0.00 0.00 0.00 0.00 0.00 0.00 0.00 0.00 0.00 0.00 0.00 0.00 0.00 0.00 0.00 0.00 0.00 0.00 0.00 0.00 0.00 0.00 0.00 0.00 0.01 0.01 0.01 0.01 0.01 0.02
0.08 0.07 0.05 0.02 0.01 0.00 0.00 0.00 0.00 0.00 0.00 0.00 0.00 0.00 0.00 0.00 0.00 0.00 0.00 0.00 0.00 0.00 0.00 0.00 0.00 0.00 0.00 0.00 0.00 0.00 0.00 0.00 0.00 0.00 0.00 0.00 0.01 0.01 0.01 0.01 0.02 0.03 0.06
0.09 0.08 0.05 0.01 0.00 0.00 0.00 0.00 0.00 0.00 0.00 0.00 0.00 0.00 0.00 0.00 0.00 0.00 0.00 0.00 0.00 0.00 0.00 0.00 0.00 0.00 0.00 0.00 0.00 0.01 0.01 0.01 0.01 0.01 0.01 0.01 0.02 0.01 0.01 0.03 0.05 0.09 0.13
0.10 0.06 0.02 0.00 0.00 0.00 0.00 0.00 0.00 0.00 0.00 0.00 0.00 0.00 0.00 0.00 0.00 0.00 0.00 0.00 0.00 0.00 0.00 0.00 0.00 0.00 0.00 0.00 0.00 0.00 0.01 0.02 0.02 0.04 0.04 0.04 0.03 0.02 0.03 0.06 0.10 0.15 0.19
0.07 0.03 0.01 0.00 0.00 0.00 0.00 0.00 0.00 0.00 0.00 0.00 0.00 0.00 0.00 0.00 0.00 0.00 0.00 0.00 0.00 0.00 0.00 0.00 0.00 0.00 0.00 0.00 0.00 0.00 0.01 0.01 0.03 0.04 0.04 0.03 0.03 0.05 0.07 0.13 0.17 0.19 0.21
0.01 0.00 0.00 0.00 0.00 0.00 0.00 0.00 0.00 0.00 0.00 0.00 0.00 0.00 0.00 0.00 0.00 0.00 0.00 0.00 0.00 0.00 0.00 0.00 0.00 0.01 0.00 0.01 0.01 0.01 0.01 0.02 0.03 0.02 0.02 0.03 0.06 0.10 0.15 0.17 0.19 0.20 0.22
0.00 0.00 0.00 0.00 0.00 0.00 0.00 0.00 0.00 0.00 0.00 0.00 0.00 0.00 0.00 0.00 0.00 0.00 0.00 0.00 0.00 0.00 0.00 0.01 0.01 0.01 0.01 0.01 0.02 0.03 0.04 0.04 0.04 0.03 0.02 0.04 0.07 0.12 0.16 0.17 0.17 0.18 0.18
0.00 0.00 0.00 0.00 0.00 0.00 0.00 0.00 0.00 0.00 0.00 0.00 0.00 0.00 0.00 0.00 0.00 0.00 0.00 0.00 0.00 0.00 0.00 0.01 0.01 0.01 0.01 0.01 0.01 0.02 0.03 0.04 0.04 0.03 0.05 0.07 0.10 0.14 0.17 0.18 0.18 0.16 0.12
MSLP
1013.39 1013.81 1014.19 1014.52 1014.77 1014.97 1015.16 1015.38 1015.66 1016.03 1016.48 1017.00 1017.53 1018.03 1018.45 1018.76 1018.95 1019.03 1019.03 1018.98 1018.92 1018.90 1018.90 1018.95 1019.01 1019.08 1019.11 1019.08 1019.01 1018.88 1018.71 1018.54 1018.37 1018.23 1018.12 1018.05 1018.00 1017.94 1017.86 1017.74 1017.58 1017.37 1017.13
1013.79 1014.26 1014.69 1015.02 1015.27 1015.45 1015.61 1015.80 1016.07 1016.45 1016.92 1017.47 1018.03 1018.55 1018.99 1019.29 1019.46 1019.50 1019.47 1019.40 1019.33 1019.30 1019.32 1019.38 1019.46 1019.52 1019.55 1019.50 1019.39 1019.23 1019.02 1018.82 1018.64 1018.49 1018.38 1018.29 1018.21 1018.11 1017.96 1017.75 1017.49 1017.19 1016.86
1014.00 1014.56 1015.05 1015.44 1015.71 1015.90 1016.05 1016.23 1016.49 1016.87 1017.35 1017.91 1018.49 1019.02 1019.46 1019.75 1019.90 1019.93 1019.87 1019.78 1019.70 1019.67 1019.69 1019.76 1019.84 1019.90 1019.91 1019.85 1019.73 1019.55 1019.34 1019.13 1018.95 1018.81 1018.70 1018.60 1018.49 1018.32 1018.08 1017.77 1017.39 1016.97 1016.54
1014.00 1014.68 1015.28 1015.76 1016.09 1016.31 1016.48 1016.67 1016.93 1017.30 1017.78 1018.33 1018.91 1019.44 1019.87 1020.16 1020.29 1020.30 1020.23 1020.12 1020.03 1019.98 1020.00 1020.05 1020.12 1020.18 1020.18 1020.12 1019.99 1019.82 1019.63 1019.44 1019.29 1019.17 1019.06 1018.95 1018.79 1018.55 1018.22 1017.79 1017.28 1016.74 1016.21
1013.88 1014.68 1015.41 1016.00 1016.42 1016.71 1016.92 1017.12 1017.38 1017.74 1018.21 1018.74 1019.30 1019.82 1020.23 1020.50 1020.63 1020.63 1020.54 1020.42 1020.31 1020.24 1020.23 1020.26 1020.31 1020.34 1020.33 1020.27 1020.16 1020.01 1019.86 1019.72 1019.60 1019.51 1019.41 1019.27 1019.07 1018.76 1018.32 1017.78 1017.16 1016.51 1015.88
1013.69 1014.63 1015.50 1016.21 1016.75 1017.12 1017.38 1017.61 1017.87 1018.22 1018.65 1019.15 1019.68 1020.16 1020.55 1020.80 1020.91 1020.90 1020.80 1020.66 1020.53 1020.43 1020.38 1020.38 1020.39 1020.40 1020.38 1020.32 1020.22 1020.11 1020.00 1019.91 1019.83 1019.76 1019.66 1019.51 1019.26 1018.88 1018.36 1017.72 1017.00 1016.26 1015.56
1013.52 1014.59 1015.59 1016.44 1017.08 1017.54 1017.87 1018.13 1018.39 1018.71 1019.11 1019.56 1020.03 1020.47 1020.82 1021.04 1021.14 1021.11 1020.99 1020.83 1020.67 1020.54 1020.45 1020.40 1020.37 1020.34 1020.31 1020.25 1020.18 1020.10 1020.03 1019.97 1019.93 1019.87 1019.77 1019.59 1019.30 1018.86 1018.28 1017.57 1016.79 1015.99 1015.23
1013.44 1014.61 1015.73 1016.69 1017.44 1017.99 1018.37 1018.66 1018.92 1019.22 1019.56 1019.95 1020.35 1020.72 1021.02 1021.21 1021.27 1021.23 1021.09 1020.91 1020.72 1020.55 1020.42 1020.32 1020.25 1020.19 1020.14 1020.08 1020.02 1019.97 1019.93 1019.90 1019.87 1019.81 1019.70 1019.49 1019.16 1018.68 1018.05 1017.31 1016.50 1015.68 1014.90
1013.45 1014.71 1015.91 1016.96 1017.81 1018.43 1018.87 1019.19 1019.44 1019.70 1019.98 1020.29 1020.61 1020.91 1021.14 1021.28 1021.30 1021.23 1021.07 1020.87 1020.66 1020.46 1020.28 1020.15 1020.04 1019.96 1019.89 1019.83 1019.78 1019.74 1019.71 1019.68 1019.65 1019.58 1019.44 1019.20 1018.83 1018.32 1017.68 1016.94 1016.14 1015.32 1014.56
1013.53 1014.85 1016.12 1017.24 1018.16 1018.84 1019.33 1019.66 1019.90 1020.12 1020.33 1020.56 1020.79 1021.00 1021.15 1021.22 1021.21 1021.10 1020.93 1020.71 1020.48 1020.26 1020.06 1019.90 1019.77 1019.67 1019.59 1019.53 1019.48 1019.44 1019.40 1019.36 1019.31 1019.20 1019.02 1018.74 1018.35 1017.83 1017.19 1016.47 1015.70 1014.92 1014.19
1013.64 1015.00 1016.32 1017.49 1018.45 1019.18 1019.69 1020.04 1020.26 1020.43 1020.58 1020.72 1020.85 1020.97 1021.04 1021.05 1020.98 1020.84 1020.65 1020.43 1020.19 1019.97 1019.77 1019.60 1019.47 1019.36 1019.28 1019.21 1019.16 1019.11 1019.06 1018.99 1018.88 1018.73 1018.51 1018.19 1017.76 1017.24 1016.62 1015.93 1015.20 1014.48 1013.78
1013.76 1015.13 1016.47 1017.66 1018.65 1019.40 1019.94 1020.28 1020.50 1020.62 1020.71 1020.77 1020.81 1020.84 1020.82 1020.76 1020.65 1020.49 1020.29 1020.07 1019.85 1019.64 1019.45 1019.30 1019.18 1019.08 1019.00 1018.93 1018.87 1018.80 1018.71 1018.60 1018.44 1018.23 1017.95 1017.59 1017.14 1016.60 1016.00 1015.35 1014.67 1013.98 1013.32
1013.85 1015.23 1016.56 1017.75 1018.74 1019.50 1020.05 1020.40 1020.59 1020.69 1020.72 1020.71 1020.67 1020.62 1020.53 1020.42 1020.27 1020.09 1019.89 1019.69 1019.49 1019.31 1019.15 1019.03 1018.93 1018.85 1018.78 1018.71 1018.63 1018.52 1018.40 1018.23 1018.01 1017.73 1017.39 1016.98 1016.50 1015.96 1015.36 1014.73 1014.08 1013.43 1012.79
1013.94 1015.30 1016.60 1017.76 1018.74 1019.49 1020.03 1020.38 1020.56 1020.64 1020.63 1020.57 1020.47 1020.36 1020.22 1020.06 1019.89 1019.71 1019.52 1019.34 1019.18 1019.04 1018.92 1018.83 1018.76 1018.69 1018.63 1018.55 1018.44 1018.30 1018.12 1017.89 1017.60 1017.25 1016.85 1016.39 1015.87 1015.31 1014.71 1014.09 1013.45 1012.81 1012.17
1014.05 1015.37 1016.62 1017.73 1018.67 1019.40 1019.92 1020.26 1020.44 1020.50 1020.47 1020.38 1020.25 1020.10 1019.93 1019.76 1019.58 1019.40 1019.24 1019.10 1018.97 1018.87 1018.80 1018.73 1018.68 1018.62 1018.55 1018.44 1018.30 1018.10 1017.86 1017.55 1017.19 1016.77 1016.30 1015.79 1015.23 1014.64 1014.03 1013.40 1012.75 1012.10 1011.44
1014.24 1015.48 1016.66 1017.70 1018.57 1019.26 1019.76 1020.09 1020.27 1020.32 1020.29 1020.19 1020.05 1019.89 1019.72 1019.55 1019.38 1019.23 1019.10 1018.99 1018.90 1018.84 1018.79 1018.75 1018.70 1018.62 1018.52 1018.37 1018.17 1017.91 1017.58 1017.20 1016.75 1016.25 1015.72 1015.14 1014.55 1013.93 1013.29 1012.65 1011.99 1011.32 1010.64
1014.54 1015.69 1016.76 1017.71 1018.50 1019.14 1019.60 1019.92 1020.09 1020.15 1020.13 1020.05 1019.93 1019.78 1019.63 1019.48 1019.34 1019.22 1019.12 1019.04 1018.99 1018.94 1018.90 1018.86 1018.79 1018.68 1018.52 1018.31 1018.03 1017.68 1017.26 1016.78 1016.25 1015.67 1015.06 1014.43 1013.79 1013.14 1012.49 1011.83 1011.16 1010.48 1009.79
1014.98 1016.01 1016.96 1017.80 1018.50 1019.06 1019.49 1019.78 1019.95 1020.03 1020.04 1019.99 1019.90 1019.79 1019.67 1019.56 1019.46 1019.37 1019.31 1019.26 1019.21 1019.17 1019.12 1019.05 1018.93 1018.76 1018.54 1018.24 1017.86 1017.41 1016.88 1016.30 1015.67 1015.01 1014.33 1013.64 1012.96 1012.29 1011.63 1010.96 1010.30 1009.64 1008.96
1015.54 1016.45 1017.27 1017.98 1018.59 1019.07 1019.45 1019.72 1019.89 1019.99 1020.03 1020.02 1019.98 1019.92 1019.86 1019.79 1019.73 1019.68 1019.64 1019.60 1019.55 1019.49 1019.41 1019.28 1019.10 1018.85 1018.53 1018.13 1017.65 1017.08 1016.45 1015.76 1015.04 1014.29 1013.54 1012.80 1012.09 1011.40 1010.75 1010.11 1009.48 1008.86 1008.25
1016.19 1016.97 1017.66 1018.26 1018.76 1019.17 1019.50 1019.75 1019.93 1020.05 1020.13 1020.17 1020.18 1020.18 1020.16 1020.14 1020.12 1020.09 1020.06 1020.02 1019.95 1019.86 1019.72 1019.52 1019.27 1018.93 1018.51 1018.01 1017.42 1016.74 1016.00 1015.21 1014.39 1013.56 1012.74 1011.96 1011.23 1010.54 1009.91 1009.32 1008.76 1008.23 1007.71
1016.87 1017.53 1018.11 1018.60 1019.01 1019.36 1019.64 1019.87 1020.06 1020.20 1020.32 1020.41 1020.48 1020.52 1020.56 1020.58 1020.59 1020.57 1020.53 1020.47 1020.37 1020.22 1020.02 1019.75 1019.41 1018.98 1018.47 1017.87 1017.18 1016.41 1015.57 1014.69 1013.79 1012.89 1012.02 1011.20 1010.45 1009.79 1009.20 1008.68 1008.22 1007.80 1007.42
1017.54 1018.09 1018.57 1018.97 1019.32 1019.61 1019.86 1020.08 1020.27 1020.44 1020.59 1020.73 1020.84 1020.94 1021.02 1021.07 1021.08 1021.07 1021.01 1020.91 1020.76 1020.55 1020.27 1019.93 1019.50 1019.00 1018.41 1017.73 1016.97 1016.13 1015.22 1014.27 1013.30 1012.35 1011.44 1010.60 1009.85 1009.20 1008.67 1008.24 1007.90 1007.62 1007.39
1018.14 1018.61 1019.01 1019.35 1019.64 1019.90 1020.13 1020.35 1020.55 1020.74 1020.93 1021.10 1021.26 1021.40 1021.50 1021.56 1021.58 1021.54 1021.45 1021.30 1021.08 1020.80 1020.45 1020.03 1019.54 1018.98 1018.33 1017.60 1016.80 1015.91 1014.97 1013.98 1012.98 1012.00 1011.06 1010.21 1009.47 1008.86 1008.39 1008.05 1007.83 1007.69 1007.63
1018.66 1019.07 1019.42 1019.72 1019.98 1020.21 1020.43 1020.65 1020.87 1021.09 1021.31 1021.52 1021.70 1021.86 1021.98 1022.04 1022.04 1021.97 1021.83 1021.61 1021.32 1020.97 1020.55 1020.06 1019.52 1018.91 1018.23 1017.49 1016.67 1015.78 1014.84 1013.85 1012.85 1011.86 1010.93 1010.08 1009.36 1008.79 1008.37 1008.12 1008.00 1008.00 1008.09
1019.09 1019.47 1019.78 1020.05 1020.30 1020.53 1020.76 1020.99 1021.22 1021.47 1021.71 1021.94 1022.15 1022.32 1022.44 1022.48 1022.45 1022.34 1022.13 1021.84 1021.48 1021.05 1020.56 1020.02 1019.43 1018.80 1018.12 1017.39 1016.60 1015.74 1014.83 1013.88 1012.91 1011.95 1011.04 1010.22 1009.53 1008.99 1008.63 1008.44 1008.41 1008.52 1008.72
1019.48 1019.82 1020.11 1020.38 1020.62 1020.85 1021.09 1021.34 1021.60 1021.86 1022.12 1022.38 1022.60 1022.77 1022.87 1022.90 1022.82 1022.65 1022.38 1022.02 1021.58 1021.08 1020.52 1019.94 1019.32 1018.68 1018.02 1017.32 1016.58 1015.79 1014.95 1014.07 1013.16 1012.26 1011.40 1010.62 1009.96 1009.46 1009.13 1008.99 1009.02 1009.19 1009.46
Thickness
5740 5737 5732 5728 5723 5717 5712 5708 5703 5698 5694 5689 5683 5676 5668 5663 5659 5655 5651 5647 5643 5639 5635 5630 5625 5621 5616 5611 5607 5603 5599 5594 5591 5588 5587 5586 5583 5580 5575 5572 5569 5566 5564
5728 5725 5722 5718 5713 5707 5702 5696 5691 5687 5683 5678 5672 5664 5657 5651 5647 5643 5639 5635 5631 5626 5621 5616 5611 5606 5600 5596 5591 5587 5582 5577 5573 5569 5567 5568 5568 5563 5562 5557 5555 5552 5549
5719 5716 5712 5707 5702 5696 5692 5686 5680 5675 5670 5666 5660 5653 5647 5641 5636 5631 5627 5623 5618 5613 5608 5602 5597 5591 5585 5580 5574 5569 5564 5559 5555 5550 5547 5546 5547 5545 5547 5545 5543 5539 5536
5713 5708 5702 5696 5691 5685 5681 5676 5670 5664 5659 5654 5648 5643 5636 5629 5623 5619 5616 5612 5607 5601 5595 5589 5583 5576 5569 5563 5557 5551 5545 5540 5537 5533 5530 5528 5527 5526 5532 5534 5531 5527 5525
5707 5701 5694 5688 5682 5676 5671 5665 5659 5653 5647 5643 5637 5631 5625 5619 5613 5609 5605 5600 5595 5588 5582 5575 5567 5560 5553 5546 5540 5533 5527 5523 5519 5517 5515 5514 5513 5512 5512 5519 5521 5517 5513
5701 5693 5686 5679 5672 5666 5661 5655 5648 5641 5636 5631 5625 5620 5615 5609 5604 5599 5594 5587 5581 5573 5566 5559 5551 5544 5538 5531 5524 5518 5513 5509 5505 5503 5501 5500 5500 5501 5499 5503 5506 5506 5504
5693 5684 5676 5669 5663 5656 5650 5643 5638 5630 5624 5620 5614 5609 5604 5599 5594 5588 5582 5575 5567 5560 5552 5545 5538 5531 5524 5518 5511 5506 5501 5497 5495 5492 5490 5489 5487 5486 5486 5487 5491 5492 5494
5685 5676 5668 5661 5654 5647 5639 5633 5626 5618 5613 5608 5603 5598 5593 5588 5583 5577 5571 5565 5557 5549 5541 5534 5526 5519 5512 5506 5501 5496 5491 5488 5485 5483 5480 5477 5475 5473 5471 5471 5471 5476 5482
5676 5666 5658 5650 5643 5636 5628 5621 5614 5607 5602 5597 5592 5586 5582 5577 5573 5567 5561 5554 5546 5538 5530 5522 5515 5508 5502 5497 5492 5487 5483 5479 5475 5472 5469 5466 5464 5461 5458 5456 5455 5456 5465
5664 5655 5647 5639 5632 5624 5616 5608 5602 5596 5591 5585 5580 5575 5571 5566 5561 5556 5549 5541 5534 5526 5518 5512 5505 5499 5493 5488 5483 5479 5474 5469 5465 5461 5457 5454 5451 5448 5445 5444 5442 5442 5445
5655 5645 5636 5629 5620 5611 5604 5596 5590 5584 5579 5573 5568 5564 5560 5555 5550 5543 5536 5529 5522 5514 5507 5501 5495 5490 5485 5480 5474 5469 5464 5459 5453 5448 5444 5441 5438 5435 5433 5432 5432 5432 5433
5648 5637 5628 5619 5610 5600 5593 5586 5579 5572 5567 5562 5557 5552 5548 5544 5538 5531 5524 5517 5510 5504 5497 5491 5486 5481 5477 5471 5465 5459 5452 5445 5439 5434 5429 5426 5424 5422 5421 5421 5422 5424 5425
5640 5629 5619 5610 5601 5592 5584 5576 5569 5563 5558 5553 5547 5541 5537 5532 5525 5519 5512 5506 5500 5494 5488 5482 5477 5472 5468 5462 5455 5447 5438 5431 5424 5418 5414 5412 5410 5410 5409 5410 5413 5416 5419
5634 5622 5610 5601 5592 5583 5574 5566 5559 5553 5548 5541 5535 5530 5526 5520 5514 5508 5502 5497 5491 5485 5479 5473 5468 5462 5457 5450 5442 5433 5425 5417 5411 5405 5401 5399 5398 5398 5400 5402 5406 5410 5413
5626 5615 5603 5592 5582 5572 5564 5557 5550 5543 5536 5530 5525 5521 5516 5510 5504 5499 5494 5489 5483 5478 5471 5464 5457 5450 5443 5436 5427 5419 5411 5404 5399 5395 5391 5390 5390 5393 5395 5398 5401 5404 5407
5619 5607 5595 5582 5572 5564 5555 5546 5539 5533 5526 5521 5517 5512 5506 5501 5495 5491 5486 5480 5474 5468 5461 5453 5445 5437 5429 5421 5412 5405 5398 5393 5389 5387 5385 5384 5385 5387 5390 5393 5397 5400 5403
5611 5598 5585 5573 5563 5554 5545 5536 5530 5523 5518 5513 5508 5503 5497 5492 5488 5484 5478 5471 5465 5458 5450 5440 5432 5423 5414 5407 5400 5392 5388 5383 5381 5380 5380 5381 5383 5384 5385 5390 5395 5399 5402
5597 5584 5572 5560 5550 5541 5532 5526 5521 5515 5510 5504 5499 5494 5489 5485 5480 5474 5467 5460 5452 5444 5434 5425 5417 5409 5402 5395 5389 5383 5379 5377 5377 5376 5377 5378 5380 5383 5386 5390 5394 5400 5405
5578 5567 5556 5546 5536 5529 5523 5517 5512 5507 5501 5496 5490 5485 5481 5476 5469 5461 5452 5444 5436 5427 5419 5411 5404 5397 5390 5384 5380 5376 5374 5374 5375 5375 5377 5378 5381 5384 5387 5391 5396 5403 5411
5559 5549 5540 5532 5524 5518 5513 5509 5504 5499 5493 5487 5482 5476 5471 5465 5456 5446 5437 5428 5421 5412 5405 5398 5392 5386 5381 5377 5373 5370 5370 5371 5372 5374 5376 5379 5382 5385 5388 5392 5398 5406 5414
5541 5533 5526 5520 5514 5508 5505 5501 5496 5491 5485 5479 5473 5466 5459 5451 5441 5432 5423 5415 5407 5400 5393 5387 5382 5378 5374 5371 5368 5366 5366 5366 5368 5371 5375 5379 5382 5386 5391 5396 5402 5409 5415
5524 5518 5512 5509 5504 5501 5499 5495 5488 5483 5477 5471 5463 5456 5448 5440 5430 5421 5412 5403 5395 5389 5383 5378 5375 5371 5369 5366 5365 5363 5363 5363 5366 5370 5374 5378 5383 5389 5396 5402 5409 5414 5419
5512 5508 5505 5502 5498 5496 5493 5488 5480 5475 5468 5461 5452 5444 5436 5427 5418 5410 5401 5393 5386 5380 5376 5372 5369 5366 5364 5362 5361 5361 5362 5363 5366 5369 5375 5380 5386 5393 5401 5407 5413 5418 5420
5503 5501 5500 5497 5494 5490 5486 5480 5473 5467 5460 5451 5442 5433 5424 5416 5408 5400 5392 5385 5379 5374 5370 5366 5363 5361 5359 5358 5358 5359 5361 5364 5367 5371 5376 5383 5390 5397 5403 5409 5413 5415 5417
5497 5496 5494 5491 5488 5483 5478 5472 5466 5459 5451 5441 5432 5423 5415 5407 5399 5392 5385 5379 5374 5368 5364 5360 5358 5357 5357 5355 5355 5356 5360 5363 5366 5370 5378 5384 5391 5398 5404 5408 5411 5413 5415
5492 5490 5488 5485 5480 5476 5469 5464 5458 5452 5443 5433 5424 5415 5407 5399 5391 5385 5380 5375 5369 5365 5361 5357 5354 5354 5353 5354 5356 5359 5361 5364 5367 5372 5378 5384 5390 5397 5403 5407 5409 5411 5412